Location: Castro Valley
(37.6940°N, 122.0850°W)
Time: 02:22:05
(UTC-08:00)

PANSAT - Visible Passes

Search period start: 26 January 2015 00:00
Search period end: 05 February 2015 00:00
Orbit: 487 x 493 km, 28.5° (Epoch: 25 January)

Date Brightness Start Highest point End Pass type
(mag) Time Alt. Az. Time Alt. Az. Time Alt. Az.
27 Jan 10.0 06:40:24 10° SW 06:43:04 18° S 06:45:44 10° SE visible
28 Jan 9.8 06:13:56 10° SW 06:16:37 18° S 06:19:20 10° SE visible
29 Jan 9.7 05:48:04 13° SSW 05:50:12 19° S 05:52:56 10° SE visible
30 Jan 9.6 05:23:14 18° S 05:23:45 19° S 05:26:31 10° SE visible
31 Jan 9.9 04:58:20 17° SSE 04:58:20 17° SSE 05:00:05 10° SE visible
31 Jan 9.7 06:34:08 10° SW 06:36:51 18° S 06:39:32 10° SE visible
01 Feb 10.7 04:33:25 11° SE 04:33:25 11° SE 04:33:40 10° SE visible
01 Feb 9.7 06:07:45 10° SW 06:10:23 18° S 06:13:04 10° SE visible
02 Feb 9.5 05:42:48 16° SSW 05:43:56 18° S 05:46:35 10° SE visible
03 Feb 9.7 05:17:51 17° S 05:17:51 17° S 05:20:05 10° SE visible
04 Feb 10.3 04:52:55 13° SSE 04:52:55 13° SSE 04:53:35 10° SSE visible
